Flag for Germany Weather past 2 weeks in Filderstadt, Baden-Württemberg, Germany

Now
60 °F

Sprinkles. Overcast.


Feels Like: 60 °F
Forecast: 51 / 66 °F
Wind: 6 mph from West

Location: Stuttgart-Echterdingen

Current Time: Jul 8, 2015 at 8:36:34 AM

Latest Report: Jul 8, 2015 at 8:00 AM


Visibility: 7 mi

Pressure: 29.91 "Hg

Humidity: 85%

Dew point: 56 °F

Location of FilderstadtLocation

Historic Weather in Filderstadt — Graph

°F

Filderstadt temperature yesterday

Maximum temperature yesterday: 95 °F (at 3:00 PM)
Minimum temperature yesterday: 62 °F (at 6:00 AM)
Average temperature yesterday: 79 °F

Past Weeks' High & Low Weather Summary

 TemperatureHumidityPressure
High97 °F (Jul 5, 4:00 PM)97% (Jun 24, 7:00 AM)30.24 "Hg (Jun 24, 7:00 AM)
Low46 °F (Jun 24, 6:00 AM)23% (Jul 4, 6:00 PM)29.67 "Hg (Jul 7, 8:00 PM)
Average72 °F61%30.08 "Hg
* Reported Jun 23 7:00 AM — Jul 8 7:00 AM, Filderstadt, Weather by CustomWeather, © 2015

Note: Actual official high and low records may vary slightly from our data, if they occured in-between our weather recording intervals... More about our weather records

Advertising

Filderstadt weather history for previous 24 hours

 ConditionsComfort  
Time TempWeatherWind HumidityBarometerVisibility
7:00 AM
Wed, Jul 8
66 °FOvercast.10 mph68%29.87 "Hg37 mi
4:00 AM71 °FOvercast.3 mph60%29.86 "Hg31 mi
3:00 AM70 °FPassing clouds.5 mph61%29.87 "Hg31 mi
2:00 AM73 °FPassing clouds.7 mph56%29.83 "Hg31 mi
1:00 AM74 °FPassing clouds.6 mph56%29.80 "Hg31 mi
10:00 PM
Tue, Jul 7
82 °FOvercast.8 mph50%29.74 "Hg16 mi
9:00 PM87 °FOvercast.5 mph36%29.68 "Hg31 mi
8:00 PM90 °FOvercast.2 mph31%29.67 "Hg37 mi
7:00 PM93 °FPartly sunny.2 mph28%29.68 "Hg37 mi
6:00 PM94 °FPassing clouds.3 mph28%29.71 "Hg31 mi
5:00 PM95 °FScattered clouds.6 mph27%29.74 "Hg31 mi
4:00 PM95 °FScattered clouds.8 mph25%29.76 "Hg28 mi
3:00 PM95 °FPassing clouds.6 mph26%29.78 "Hg22 mi
2:00 PM92 °FScattered clouds.6 mph39%29.80 "Hg19 mi
1:00 PM90 °FPassing clouds.2 mph44%29.82 "Hg22 mi
12:00 PM85 °FPartly sunny.1 mph50%29.85 "Hg22 mi
10:00 AM78 °FScattered clouds.2 mph58%29.91 "Hg22 mi
9:00 AM74 °FScattered clouds.1 mph65%29.94 "Hg22 mi
8:00 AM69 °FPassing clouds.1 mph68%29.97 "Hg22 mi
Weather by CustomWeather, © 2015

See weather overviewHow to use our weather pages